Location: Turtle Rock Observatory
(36.6913°N, 81.9708°W)
Time: 18:17:14
(UTC-04:00)

Daily predictions for brighter satellites

Satellite Brightness Start Highest point End
(mag) Time Altitude Azimuth Time Altitude Azimuth Time Altitude Azimuth
Cosmos 1980 4.0 21:12:41 10° NNW 21:18:22 74° WSW 21:24:00 10° SSE
Cosmos 1727 Rocket 4.1 21:13:48 10° S 21:20:01 65° E 21:26:18 10° NNE
Cosmos 2098 Rocket 4.5 21:13:12 10° N 21:20:49 84° E 21:28:05 10° S
Aureole 2 Rocket 3.8 21:22:09 10° NNW 21:26:00 45° WSW 21:29:36 10° S
Cosmos 2237 Rocket 2.6 21:22:35 10° NNW 21:28:09 66° WSW 21:33:43 10° S
Cosmos 1939 Rocket 3.0 21:25:57 10° SSE 21:29:52 61° ENE 21:33:53 10° N
Cosmos 1340 Rocket 2.8 21:27:30 10° S 21:31:30 75° E 21:35:34 10° NNE
SJ-11-01 4.4 21:28:21 10° SSE 21:33:03 68° ENE 21:37:46 10° N
CZ-4B DEB 3.2 21:31:03 10° SE 21:33:51 39° ENE 21:36:38 10° N
Cosmos 2221 3.1 21:30:08 10° N 21:34:17 40° E 21:38:24 10° SSE
Envisat 3.1 21:29:52 10° SSE 21:34:57 87° WSW 21:40:03 10° NNW
Tiangong 1 3.0 21:34:59 10° WNW 21:37:24 25° N 21:39:47 10° NE
Meteor 1-29 2.9 21:36:34 10° NNE 21:39:59 62° ESE 21:43:23 10° S
Cosmos 2227 Rocket 4.1 21:35:14 10° SW 21:40:22 35° WNW 21:45:31 10° N
Cosmos 1140 Rocket 4.3 21:35:33 10° SSW 21:40:36 55° WNW 21:45:41 10° N
Cosmos 1674 3.1 21:39:00 10° SSE 21:42:33 40° E 21:46:05 10° NNE
Cosmos 2208 Rocket 4.5 21:39:49 10° N 21:44:58 47° ENE 21:49:33 13° SE
Okean 3 Rocket 3.6 21:41:56 10° S 21:46:24 69° E 21:50:51 10° NNE
SAR-Lupe-4 3.6 21:43:00 10° SSE 21:46:29 62° ENE 21:50:02 10° N
ARGOS 4.3 21:42:43 12° ESE 21:46:51 27° ENE 21:51:21 10° N
In-Cosmos 22 4.5 21:41:54 10° SSW 21:47:35 77° W 21:53:22 10° N
CZ-3B R/B 3.3 21:45:42 10° SSW 21:48:12 64° SE 21:55:10 10° NE
GPS 2-05 Rocket1 3.8 21:47:37 10° SSW 21:50:08 23° SSE 21:51:24 18° ESE
SPOT 5 4.3 21:47:02 12° ESE 21:50:22 24° ENE 21:54:24 10° NNE
Lacrosse 5 3.4 21:46:41 10° NNW 21:50:54 25° NE 21:55:05 10° E
SL-16 R/B 2.2 21:47:31 10° NNW 21:53:13 82° ENE 21:58:21 13° SSE
Cosmos 1908 3.6 21:49:45 10° N 21:53:30 46° E 21:56:19 16° SSE
USA 32 4.3 21:50:48 10° S 21:56:01 73° W 22:01:17 10° N
Cosmos 1570 Rocket 4.1 21:51:36 10° NNW 21:56:54 68° ENE 22:01:16 15° SSE
Cosmos 1766 Rocket 4.0 21:54:51 12° SSE 21:58:32 41° E 22:02:37 10° NNE
Atlas Centaur 2 2.4 21:55:58 10° WSW 21:58:55 23° SSW 22:00:27 17° SSE
KORONAS-FOTON 4.1 21:56:38 13° SSE 21:59:44 44° E 22:03:21 10° NNE
OAO 1 Rocket 4.4 21:59:23 10° WSW 22:04:43 71° S 22:10:03 10° E
Cosmos 1242 Rocket 2.7 22:01:13 10° N 22:04:54 59° E 22:07:16 20° SSE
SAR-Lupe-1 4.1 22:03:17 14° S 22:06:14 83° WSW 22:09:51 10° NNW
USA 245 4.3 22:07:27 21° ESE 22:08:54 28° ENE 22:12:23 10° N
Helios 1B rocket 3.7 22:05:28 10° N 22:09:23 42° WNW 22:13:17 10° SW
Cosmos 1867 4.2 22:09:06 10° SW 22:14:26 58° WNW 22:19:50 10° NNE
Resurs 01 Rocket 4.4 22:13:04 10° WSW 22:15:14 13° W 22:17:24 10° WNW
Delta 2 Rocket 4.3 22:10:00 10° SW 22:15:25 48° SSE 22:20:58 10° E
Helios 1A 4.3 22:12:30 10° SSW 22:16:19 36° W 22:20:10 10° NNW
Milstar 3 Cent rocket 4.0 22:09:46 10° WSW 22:16:24 41° S 22:25:00 19° SE
USA 234 3.2 22:11:47 10° NE 22:18:16 63° SE 22:24:44 10° SSW
Cosmos 2228 Rocket 4.2 22:16:28 10° NNE 22:20:28 29° ENE 22:22:04 23° ESE
NOAA 11 4.1 22:16:47 18° SSE 22:20:56 83° ENE 22:26:24 10° N
Cosmos 468 Rocket 4.3 22:18:27 10° N 22:23:26 50° ENE 22:26:04 26° SE
SL-08 RB Rocket 4.2 22:21:54 26° SE 22:24:05 45° ENE 22:28:28 10° N
ERS-1 Rocket 3.0 22:21:46 17° S 22:25:39 79° WSW 22:30:43 10° NNW
Terra 3.6 22:24:01 15° E 22:25:41 18° ENE 22:28:50 10° NNE
Cosmos 2227 4.2 22:20:57 10° SSW 22:26:41 86° WNW 22:32:26 10° NNE
Cosmos 1459 Rocket 4.0 22:20:53 10° N 22:27:11 85° W 22:32:18 16° S
H-2A ROCKET BODY 3.2 22:27:07 10° SSW 22:30:24 27° SE 22:39:18 10° E
Cosmos 2100 Rocket 4.3 22:26:45 10° NNW 22:33:02 71° W 22:38:36 14° S
Cosmos 332 Rocket 4.1 22:30:13 10° N 22:35:01 52° ENE 22:37:02 31° SE
MetOp-B 4.2 22:35:14 22° S 22:38:45 80° WSW 22:44:08 10° NNW
Cosmos 2061 Rocket 4.2 22:33:51 10° N 22:40:13 75° W 22:45:13 18° S
Cosmos 2123 Rocket 3.9 22:36:04 19° S 22:40:37 73° E 22:46:48 10° N
H-2A R/B 2.3 22:39:05 30° SE 22:41:31 56° ENE 22:46:49 10° N
Cosmos 220 Rocket 3.9 22:39:19 22° S 22:42:08 77° ESE 22:46:32 10° NNE
Cosmos 2173 Rocket 4.3 22:36:45 10° NNW 22:42:51 64° W 22:47:54 16° S
Cosmos 1626 3.7 22:44:38 21° ENE 22:44:38 21° ENE 22:46:53 10° NE
Meteor 2-10 4.4 22:38:28 10° N 22:44:01 58° E 22:46:32 32° SE
Cosmos 2058 3.8 22:44:53 31° E 22:45:01 31° E 22:48:44 10° NNE
Cosmos 2263 Rocket 2.4 22:46:57 32° SSE 22:49:09 48° ESE 22:54:30 10° NNE
Cosmos 1726 2.0 22:47:34 10° N 22:51:14 80° W 22:52:04 51° S
SL-14 R/B 3.3 22:53:30 38° SSW 22:54:57 80° W 22:58:55 10° N
Cosmos 1300 2.5 22:51:07 10° N 22:54:57 83° E 22:55:37 59° SSE
RESURS DK-1 2.3 22:51:47 10° NNW 22:55:58 87° WSW 22:56:54 53° SSE
EO 1 Delta rocket 3.7 22:55:37 39° SSE 22:57:23 86° E 23:02:01 10° N
Cosmos 1328 4.2 23:02:47 35° SSW 23:04:18 62° W 23:08:19 10° N
Meteor 2-2 Rocket 4.4 22:59:00 10° NNW 23:04:48 77° W 23:07:36 33° S
Cosmos 1725 Rocket 4.0 23:00:05 10° N 23:06:22 85° W 23:09:19 33° S
ERBS 3.1 23:03:17 10° NNW 23:06:28 42° NE 23:06:28 42° NE
deb Chang Zheng 4 4.4 23:06:00 10° NNE 23:09:31 35° E 23:09:31 35° E
Cosmos 1356 3.6 23:11:37 65° NNE 23:11:37 65° NNE 23:14:42 10° N
Cosmos 2151 2.8 23:11:00 65° SSE 23:11:33 79° E 23:15:52 10° N
Tiangong 1 2.9 23:11:03 10° NW 23:13:24 25° N 23:13:24 25° N
Cosmos 1354 Rocket 4.0 23:16:06 53° SE 23:16:55 60° ESE 23:22:04 10° NNE
Cosmos 1500 Rocket 3.7 23:18:02 46° SSW 23:19:14 69° W 23:23:42 10° N
Cosmos 1603 4.2 23:15:01 10° NNW 23:20:29 52° WSW 23:22:24 36° SSW
Cosmos 1844 Rocket 4.5 23:24:43 16° ENE 23:24:43 16° ENE 23:26:44 10° ENE
Cosmos 1814 Rocket 4.3 23:18:13 10° NNW 23:23:30 63° WSW 23:24:55 45° SSW
DMSP B5D2-2 4.1 23:18:59 10° N 23:24:12 75° WNW 23:26:17 37° SSW
Cosmos 371 Rocket 3.5 23:20:08 10° NNW 23:24:53 60° WSW 23:25:49 50° SSW
CZ-4C R/B 3.4 23:28:15 24° E 23:28:15 24° E 23:31:19 10° NE
ARGOS 4.4 23:24:14 22° SW 23:26:55 35° W 23:31:50 10° NNW
SPOT 5 4.2 23:26:16 24° SW 23:28:12 33° W 23:32:44 10° NNW
Cosmos 1455 3.3 23:24:41 10° N 23:27:33 35° NE 23:27:33 35° NE
CARTOSAT-1 3.4 23:29:27 83° ESE 23:29:34 84° ENE 23:33:53 10° N
Cosmos 841 Rocket 3.4 23:27:51 10° NNW 23:33:07 86° WSW 23:33:53 65° S
Lacrosse 5 2.1 23:29:11 10° NW 23:34:07 55° SW 23:34:30 53° SW
Cosmos 1763 Rocket 3.6 23:29:37 10° NNW 23:34:40 63° WSW 23:35:29 54° SSW
Cosmos 1943 3.1 23:30:00 10° NNW 23:35:40 82° WSW 23:36:46 59° S
SL-19 R/B 4.1 23:31:03 10° NNE 23:36:27 85° ESE 23:37:45 55° S
SPOT 1/Viking Rocket 4.5 23:35:09 32° SW 23:36:45 40° W 23:41:35 10° NNW
Cosmos 1805 Rocket 4.1 23:39:13 46° NE 23:39:13 46° NE 23:42:40 10° NNE
Abrixas rocket 3.9 23:36:41 10° NW 23:38:41 33° NNW 23:38:41 33° NNW
CZ-4C R/B 4.5 23:46:43 38° NE 23:46:43 38° NE 23:50:18 10° N
IGS 5A 3.8 23:48:25 59° W 23:48:25 59° W 23:52:15 10° NNW
OAO 1 Rocket 4.5 23:45:01 10° W 23:49:48 63° SW 23:49:48 63° SW
Cosmos 1151 Rocket 3.9 23:46:13 10° NNW 23:50:22 42° W 23:50:35 42° W
H-2A R/B 2.2 23:51:01 70° WNW 23:51:01 70° WNW 23:54:57 10° NNW
SME Rocket 3.9 23:52:50 41° NE 23:52:50 41° NE 23:56:25 10° N
